Powrót do katalogu

STARLINK-34916

AktywnyŁącznośćVLEO
NORAD 65427·PAYLOAD·🇺🇸 United States

Wystrzelony Aug 31, 2025 z Cape Canaveral Space Force Station

Loading…

Następne Przeloty (najbliższe 24 godziny)

TLE

ŚwieżeSource: CelesTrak SupGP

Epoka: Sep 15, 2026, 03:20 UTC

1 65427C 25192Z   26258.13937500 -.00027139  00000+0 -87271-3 0  2583
2 65427  53.1576  71.1957 0001275 101.6600 357.6254 15.31715757    17

Śledź STARLINK-34916 w czasie rzeczywistym z AllMySat

Download on the App Store